Precipitable_Water
0.33 0.35 0.35 0.36 0.37 0.37 0.36 0.34 0.30 0.24 0.23 0.26 0.27 0.29 0.28 0.29 0.29 0.31 0.31 0.32 0.35 0.38 0.38 0.39 0.39 0.39 0.40 0.40 0.40 0.41 0.42 0.44 0.46 0.56 0.70 0.54 0.78 0.84
0.34 0.34 0.36 0.37 0.37 0.37 0.35 0.34 0.32 0.28 0.22 0.25 0.24 0.25 0.26 0.26 0.25 0.25 0.25 0.28 0.29 0.29 0.33 0.38 0.40 0.40 0.40 0.40 0.41 0.40 0.41 0.40 0.43 0.46 0.55 0.67 0.55 0.74
0.35 0.37 0.36 0.37 0.35 0.34 0.33 0.31 0.28 0.26 0.21 0.20 0.23 0.25 0.24 0.25 0.24 0.25 0.25 0.25 0.25 0.26 0.27 0.28 0.33 0.39 0.41 0.41 0.41 0.41 0.39 0.38 0.38 0.41 0.45 0.52 0.65 0.58
0.36 0.36 0.35 0.35 0.32 0.31 0.27 0.23 0.22 0.23 0.22 0.19 0.20 0.21 0.21 0.23 0.23 0.24 0.25 0.26 0.27 0.27 0.30 0.31 0.32 0.33 0.37 0.40 0.42 0.42 0.41 0.40 0.38 0.37 0.40 0.41 0.46 0.62
0.36 0.33 0.30 0.27 0.22 0.20 0.21 0.22 0.23 0.23 0.23 0.21 0.19 0.22 0.22 0.25 0.24 0.25 0.25 0.28 0.30 0.32 0.34 0.34 0.34 0.35 0.36 0.36 0.36 0.39 0.43 0.42 0.38 0.34 0.33 0.37 0.39 0.43
0.30 0.25 0.21 0.20 0.21 0.22 0.21 0.21 0.22 0.21 0.22 0.22 0.22 0.22 0.24 0.25 0.28 0.26 0.25 0.28 0.28 0.33 0.34 0.36 0.39 0.38 0.35 0.33 0.33 0.34 0.35 0.36 0.38 0.37 0.36 0.34 0.36 0.38
0.22 0.22 0.22 0.22 0.22 0.22 0.23 0.22 0.23 0.23 0.24 0.23 0.22 0.24 0.25 0.25 0.26 0.29 0.29 0.28 0.27 0.29 0.29 0.32 0.35 0.37 0.35 0.34 0.33 0.32 0.33 0.32 0.36 0.38 0.37 0.34 0.34 0.38
0.21 0.21 0.22 0.22 0.23 0.24 0.25 0.26 0.28 0.27 0.26 0.25 0.25 0.26 0.27 0.29 0.31 0.30 0.29 0.27 0.22 0.30 0.29 0.27 0.34 0.33 0.34 0.34 0.33 0.34 0.33 0.36 0.33 0.33 0.36 0.35 0.34 0.35
0.22 0.22 0.22 0.24 0.25 0.24 0.25 0.27 0.30 0.32 0.33 0.31 0.28 0.28 0.30 0.32 0.33 0.31 0.30 0.30 0.28 0.31 0.32 0.25 0.33 0.30 0.33 0.32 0.35 0.36 0.35 0.33 0.29 0.29 0.34 0.35 0.37 0.37
0.24 0.23 0.23 0.23 0.23 0.25 0.27 0.28 0.29 0.31 0.33 0.35 0.33 0.34 0.35 0.36 0.39 0.36 0.34 0.34 0.33 0.33 0.36 0.27 0.30 0.28 0.32 0.34 0.33 0.33 0.31 0.29 0.28 0.29 0.32 0.37 0.37 0.35
0.25 0.25 0.25 0.23 0.25 0.28 0.28 0.29 0.29 0.32 0.36 0.35 0.36 0.36 0.35 0.35 0.35 0.32 0.28 0.27 0.25 0.28 0.33 0.31 0.31 0.29 0.30 0.28 0.27 0.27 0.29 0.30 0.31 0.34 0.35 0.34 0.33 0.36
0.24 0.24 0.25 0.25 0.28 0.32 0.31 0.28 0.26 0.29 0.33 0.32 0.30 0.32 0.33 0.32 0.33 0.33 0.31 0.26 0.26 0.24 0.31 0.29 0.30 0.29 0.24 0.27 0.27 0.29 0.30 0.29 0.30 0.34 0.34 0.32 0.33 0.34
0.22 0.22 0.24 0.27 0.30 0.28 0.30 0.28 0.28 0.29 0.28 0.26 0.27 0.28 0.28 0.28 0.28 0.28 0.30 0.29 0.26 0.25 0.30 0.29 0.26 0.26 0.26 0.25 0.25 0.26 0.27 0.26 0.26 0.28 0.29 0.30 0.32 0.33
0.22 0.23 0.26 0.29 0.27 0.28 0.27 0.28 0.28 0.27 0.26 0.26 0.26 0.26 0.26 0.26 0.27 0.27 0.27 0.27 0.28 0.26 0.28 0.29 0.27 0.27 0.25 0.24 0.22 0.26 0.27 0.28 0.29 0.29 0.30 0.32 0.33 0.33
0.24 0.27 0.28 0.27 0.26 0.27 0.27 0.27 0.27 0.26 0.26 0.25 0.24 0.24 0.26 0.27 0.28 0.28 0.29 0.30 0.30 0.30 0.29 0.30 0.28 0.28 0.28 0.26 0.26 0.27 0.28 0.30 0.33 0.32 0.32 0.32 0.32 0.33
0.27 0.27 0.25 0.25 0.26 0.27 0.27 0.27 0.27 0.27 0.26 0.25 0.25 0.27 0.28 0.28 0.27 0.29 0.28 0.29 0.28 0.28 0.32 0.33 0.33 0.33 0.30 0.31 0.31 0.29 0.32 0.30 0.33 0.34 0.35 0.35 0.36 0.37
0.26 0.23 0.22 0.25 0.25 0.26 0.26 0.27 0.28 0.28 0.27 0.28 0.27 0.27 0.28 0.28 0.28 0.29 0.29 0.29 0.27 0.27 0.28 0.32 0.35 0.36 0.35 0.34 0.30 0.32 0.32 0.33 0.35 0.34 0.34 0.32 0.34 0.36
0.22 0.20 0.23 0.25 0.25 0.25 0.25 0.26 0.28 0.28 0.29 0.29 0.29 0.29 0.28 0.28 0.28 0.29 0.30 0.29 0.28 0.28 0.29 0.32 0.33 0.32 0.32 0.34 0.37 0.32 0.33 0.33 0.34 0.35 0.34 0.31 0.30 0.35
0.20 0.23 0.25 0.25 0.25 0.26 0.27 0.27 0.27 0.29 0.31 0.30 0.30 0.30 0.30 0.29 0.29 0.29 0.29 0.29 0.29 0.30 0.31 0.33 0.32 0.30 0.26 0.24 0.33 0.39 0.33 0.33 0.33 0.32 0.33 0.31 0.29 0.32
0.23 0.25 0.25 0.26 0.27 0.27 0.28 0.28 0.29 0.30 0.30 0.30 0.30 0.30 0.30 0.29 0.28 0.28 0.29 0.28 0.29 0.30 0.30 0.32 0.32 0.31 0.28 0.27 0.28 0.33 0.38 0.33 0.31 0.30 0.30 0.31 0.32 0.32
0.25 0.26 0.27 0.27 0.28 0.28 0.29 0.30 0.30 0.30 0.31 0.30 0.30 0.30 0.31 0.30 0.29 0.29 0.29 0.29 0.30 0.29 0.28 0.28 0.31 0.35 0.34 0.34 0.28 0.29 0.32 0.36 0.35 0.32 0.31 0.29 0.28 0.29
0.27 0.27 0.28 0.29 0.29 0.29 0.30 0.30 0.30 0.30 0.30 0.30 0.31 0.31 0.31 0.31 0.30 0.30 0.30 0.29 0.29 0.29 0.29 0.30 0.32 0.31 0.29 0.27 0.25 0.26 0.27 0.30 0.32 0.35 0.35 0.34 0.30 0.25
0.28 0.28 0.29 0.29 0.30 0.30 0.31 0.30 0.30 0.30 0.31 0.31 0.31 0.32 0.32 0.30 0.31 0.31 0.30 0.30 0.30 0.29 0.29 0.28 0.29 0.29 0.28 0.27 0.26 0.25 0.26 0.27 0.28 0.27 0.29 0.34 0.35 0.36
Wind_Speed
31 33 35 37 39 41 43 45 46 48 49 48 49 49 50 52 51 52 51 50 48 46 44 42 40 38 37 35 33 32 30 29 29 30 32 32 34 34
33 35 37 40 42 43 45 46 48 50 53 51 53 54 54 54 53 52 51 49 47 46 45 43 42 39 37 36 34 32 31 29 28 27 28 33 33 33
35 38 40 42 44 45 47 48 50 51 54 56 55 55 55 54 53 52 49 47 46 45 44 44 42 41 39 37 36 34 32 30 28 27 27 28 34 35
38 40 42 44 46 47 49 50 51 52 53 56 56 55 54 53 51 49 47 46 45 44 44 43 42 41 40 38 36 35 33 32 30 28 27 27 29 33
41 43 45 46 48 48 49 51 52 52 53 54 55 53 52 49 48 47 45 43 42 41 40 39 37 36 36 37 37 36 34 33 31 29 29 28 27 29
42 44 46 47 48 50 51 51 51 52 52 52 52 51 49 47 45 43 42 39 39 38 37 36 34 34 35 35 36 35 34 34 33 31 29 28 28 28
43 45 46 47 49 50 50 52 52 51 50 50 49 47 45 43 41 40 39 38 35 34 33 34 34 32 32 32 32 35 36 36 34 33 32 30 29 29
44 46 47 48 49 50 51 52 50 49 50 49 46 45 43 41 40 38 36 34 32 30 30 30 29 30 30 31 32 33 34 34 34 34 34 33 31 31
45 47 47 49 50 51 51 50 48 49 47 46 44 42 41 40 38 36 34 32 31 30 28 27 25 26 27 29 29 30 31 33 35 35 34 34 33 32
46 47 49 50 51 50 50 49 48 46 45 42 41 40 38 36 33 33 32 31 29 27 26 24 22 22 22 23 25 27 31 32 33 34 34 34 33 33
47 47 49 50 49 50 49 48 46 43 41 40 39 37 35 32 30 29 27 26 25 23 23 22 21 19 18 20 23 25 26 28 30 31 32 32 32 32
47 48 49 49 48 48 46 45 43 41 38 36 34 32 29 26 26 25 25 24 23 21 19 18 17 18 20 21 19 19 22 24 26 28 30 31 32 32
48 48 48 47 47 46 43 39 38 38 36 34 32 27 24 24 23 23 23 22 21 20 20 20 20 21 21 21 20 19 20 22 25 27 29 30 32 33
47 47 46 46 44 40 37 36 35 33 31 28 25 23 21 21 21 21 21 20 19 20 20 19 18 17 16 17 16 14 14 16 18 21 24 26 29 31
46 45 44 41 38 35 33 33 30 28 26 24 22 21 20 21 20 19 18 17 16 15 14 13 13 13 12 12 12 11 11 12 14 16 19 21 23 26
43 41 39 36 32 30 30 27 26 24 22 21 20 20 18 17 17 16 15 15 14 13 11 10 9 8 9 9 9 9 9 9 11 13 16 18 20 22
40 37 34 30 28 27 25 23 22 21 20 19 18 18 17 16 15 14 14 13 12 11 12 11 10 9 9 8 8 8 8 8 9 12 13 15 17 19
36 32 29 26 25 24 22 21 19 18 18 18 17 17 16 16 15 14 13 12 12 12 12 11 9 8 7 7 5 6 5 5 5 6 8 11 13 15
31 28 25 24 23 20 19 18 17 17 17 17 16 16 16 16 15 14 14 13 12 12 12 11 9 7 7 7 6 6 5 6 6 5 5 6 9 12
28 25 23 22 19 17 16 16 15 15 15 16 17 17 17 16 16 15 14 13 13 12 12 11 10 9 8 7 7 7 7 6 6 6 7 7 9 11
25 22 21 19 17 15 15 14 14 15 17 18 19 19 18 18 16 16 15 15 14 12 11 11 10 10 9 8 7 8 8 8 8 7 6 5 5 6
22 20 19 17 15 14 14 14 14 16 18 19 19 19 18 17 16 16 15 15 13 12 12 11 11 10 9 8 8 9 8 8 7 6 5 4 3 4
20 18 17 15 14 14 14 14 16 17 18 19 18 17 17 17 16 15 15 14 13 12 11 11 10 10 9 9 8 8 7 7 7 7 5 4 4 5
Wind_Direction
303 304 304 305 305 305 305 305 304 305 305 305 305 305 304 303 302 300 297 295 292 290 289 286 284 281 278 276 274 272 271 270 266 260 253 247 242 240
304 305 305 306 306 306 305 305 304 303 303 305 304 304 303 303 301 299 297 294 291 288 286 284 281 278 275 273 271 269 268 268 266 261 255 246 241 237
305 306 306 306 306 306 306 306 305 304 303 304 304 304 304 303 301 299 296 293 291 289 286 283 279 275 271 269 268 266 264 264 263 259 255 249 241 239
307 307 307 307 307 307 307 306 306 305 304 305 306 305 304 304 302 299 297 294 291 289 286 283 277 273 268 266 264 262 261 260 259 257 253 250 246 240
308 308 308 308 308 308 308 308 307 306 306 305 306 306 305 304 303 301 299 296 293 290 287 285 279 272 267 264 262 260 257 256 255 254 252 250 247 242
309 309 309 309 309 309 309 309 309 308 308 307 307 307 306 305 303 302 301 299 296 292 288 284 278 273 269 265 260 257 254 254 252 251 250 247 245 243
310 311 311 310 310 311 310 310 310 310 309 309 308 307 306 306 304 303 302 301 299 296 290 284 279 272 270 264 260 257 255 253 250 248 247 247 245 243
312 312 312 312 312 312 311 311 311 310 310 309 308 307 306 305 305 303 302 301 301 300 296 291 280 271 269 267 262 258 254 248 247 248 246 246 245 241
313 313 313 313 313 312 312 312 311 310 309 309 308 307 306 306 304 303 301 299 298 298 297 294 286 277 271 269 263 257 252 250 250 247 244 243 242 241
315 314 314 315 315 315 314 313 312 311 310 309 308 308 308 306 304 305 303 299 297 297 296 292 289 283 279 272 267 259 255 253 249 246 242 241 240 242
316 316 316 316 316 316 315 315 314 313 311 310 309 309 309 307 307 307 306 306 301 299 302 288 287 284 282 283 277 266 257 251 246 243 237 238 241 241
317 317 317 318 317 318 316 316 315 315 315 314 312 311 309 310 312 309 307 305 303 300 298 295 291 290 287 288 283 267 257 253 246 242 241 241 240 239
318 318 318 319 319 319 318 318 318 318 317 315 314 312 309 310 314 314 312 307 304 300 297 294 288 289 286 288 284 274 262 256 247 245 244 243 240 239
319 319 319 320 320 321 321 321 322 322 322 322 321 318 316 317 317 317 317 316 309 303 301 297 293 290 290 287 283 278 267 257 249 244 243 243 241 239
320 320 321 321 322 323 324 326 328 329 330 330 329 326 322 320 320 321 321 321 321 319 316 310 303 299 292 289 287 281 274 262 255 247 243 242 241 238
321 321 322 323 324 325 328 331 333 335 337 337 337 336 335 334 334 335 335 335 334 334 335 331 325 318 311 300 294 288 279 265 259 254 248 243 241 239
322 323 324 325 326 328 331 334 338 341 344 347 349 350 351 350 349 349 348 347 348 346 343 339 333 326 319 310 304 298 294 283 272 259 249 245 242 239
323 324 325 326 327 329 332 336 341 344 346 347 349 352 352 352 352 352 353 352 350 348 346 345 344 346 345 341 322 318 315 312 298 279 255 246 243 239
324 325 325 326 328 330 332 336 340 345 350 353 355 355 355 354 354 354 354 353 353 354 354 354 351 354 355 355 351 353 320 322 318 299 278 259 246 242
325 325 326 327 328 330 333 336 340 345 348 348 348 346 344 342 341 341 341 342 342 343 347 352 351 350 348 345 344 344 342 336 329 311 292 276 263 256
325 325 327 327 328 330 333 335 337 340 340 340 339 338 337 335 333 330 328 326 327 328 330 334 336 336 334 335 337 336 334 331 327 320 311 290 269 256
323 323 326 325 327 327 329 332 334 336 337 338 338 339 340 342 340 339 337 332 326 321 318 318 320 323 325 324 323 325 330 335 338 333 322 297 273 259
321 321 323 322 324 324 325 327 330 333 336 338 340 340 340 341 343 343 344 346 343 337 333 327 323 318 316 316 319 322 327 332 336 335 330 322 297 279